Time,TemperatureF,DewpointF,PressureIn,WindDirection,WindDirectionDegrees,WindSpeedMPH,WindSpeedGustMPH,Humidity,HourlyPrecipIn,Conditions,Clouds,dailyrainin,SoftwareType,DateUTC
2013-03-09 00:03:00,-999.0,-99.9,-100.00,South,178,4.0,4.0,-999,-99.99,,,-99.99,,2013-03-09 05:03:00,
2013-03-09 00:12:00,-999.0,-99.9,-100.00,South,184,4.0,4.0,-999,-99.99,,,-99.99,,2013-03-09 05:12:00,
2013-03-09 00:22:00,-999.0,-99.9,-100.00,South,169,4.0,5.0,-999,-99.99,,,-99.99,,2013-03-09 05:22:00,
2013-03-09 00:32:00,-999.0,-99.9,-100.00,SSE,160,4.0,5.0,-999,-99.99,,,-99.99,,2013-03-09 05:32:00,
2013-03-09 00:43:00,-999.0,-99.9,-100.00,South,177,4.0,5.0,-999,-99.99,,,-99.99,,2013-03-09 05:43:00,
2013-03-09 00:53:00,-999.0,-99.9,-100.00,South,173,4.0,5.0,-999,-99.99,,,-99.99,,2013-03-09 05:53:00,
2013-03-09 01:02:00,-999.0,-99.9,-100.00,South,169,4.0,5.0,-999,-99.99,,,-99.99,,2013-03-09 06:02:00,
2013-03-09 01:11:00,-999.0,-99.9,-100.00,South,172,4.0,5.0,-999,-99.99,,,-99.99,,2013-03-09 06:11:00,
2013-03-09 01:22:00,-999.0,-99.9,-100.00,South,173,4.0,5.0,-999,-99.99,,,-99.99,,2013-03-09 06:22:00,
2013-03-09 01:32:00,-999.0,-99.9,-100.00,SSE,161,3.0,4.0,-999,-99.99,,,-99.99,,2013-03-09 06:32:00,
2013-03-09 01:42:00,-999.0,-99.9,-100.00,South,169,3.0,5.0,-999,-99.99,,,-99.99,,2013-03-09 06:42:00,
2013-03-09 01:52:00,-999.0,-99.9,-100.00,South,174,4.0,5.0,-999,-99.99,,,-99.99,,2013-03-09 06:52:00,
2013-03-09 02:01:00,-999.0,-99.9,-100.00,South,181,4.0,5.0,-999,-99.99,,,-99.99,,2013-03-09 07:01:00,
2013-03-09 02:11:00,-999.0,-99.9,-100.00,South,183,3.0,5.0,-999,-99.99,,,-99.99,,2013-03-09 07:11:00,
2013-03-09 02:22:00,-999.0,-99.9,-100.00,South,189,3.0,4.0,-999,-99.99,,,-99.99,,2013-03-09 07:22:00,
2013-03-09 02:32:00,-999.0,-99.9,-100.00,South,175,3.0,3.0,-999,-99.99,,,-99.99,,2013-03-09 07:32:00,
2013-03-09 02:42:00,-999.0,-99.9,-100.00,South,177,4.0,4.0,-999,-99.99,,,-99.99,,2013-03-09 07:42:00,
2013-03-09 02:52:00,-999.0,-99.9,-100.00,South,169,4.0,4.0,-999,-99.99,,,-99.99,,2013-03-09 07:52:00,
2013-03-09 03:01:00,-999.0,-99.9,-100.00,SSE,160,4.0,5.0,-999,-99.99,,,-99.99,,2013-03-09 08:01:00,
2013-03-09 03:11:00,-999.0,-99.9,-100.00,South,171,4.0,5.0,-999,-99.99,,,-99.99,,2013-03-09 08:11:00,
2013-03-09 03:22:00,-999.0,-99.9,-100.00,SSE,150,4.0,5.0,-999,-99.99,,,-99.99,,2013-03-09 08:22:00,
2013-03-09 03:32:00,-999.0,-99.9,-100.00,SSE,150,4.0,5.0,-999,-99.99,,,-99.99,,2013-03-09 08:32:00,
2013-03-09 03:42:00,-999.0,-99.9,-100.00,SSE,162,4.0,6.0,-999,-99.99,,,-99.99,,2013-03-09 08:42:00,
2013-03-09 03:52:00,-999.0,-99.9,-100.00,SSE,166,5.0,7.0,-999,-99.99,,,-99.99,,2013-03-09 08:52:00,
2013-03-09 04:02:00,-999.0,-99.9,-100.00,SSE,167,5.0,7.0,-999,-99.99,,,-99.99,,2013-03-09 09:02:00,
2013-03-09 04:12:00,-999.0,-99.9,-100.00,South,172,4.0,7.0,-999,-99.99,,,-99.99,,2013-03-09 09:12:00,
2013-03-09 04:22:00,-999.0,-99.9,-100.00,South,175,4.0,5.0,-999,-99.99,,,-99.99,,2013-03-09 09:22:00,
2013-03-09 04:32:00,-999.0,-99.9,-100.00,South,175,4.0,5.0,-999,-99.99,,,-99.99,,2013-03-09 09:32:00,
2013-03-09 04:42:00,-999.0,-99.9,-100.00,South,169,3.0,6.0,-999,-99.99,,,-99.99,,2013-03-09 09:42:00,
2013-03-09 04:52:00,-999.0,-99.9,-100.00,South,174,4.0,5.0,-999,-99.99,,,-99.99,,2013-03-09 09:52:00,
2013-03-09 05:01:00,-999.0,-99.9,-100.00,South,174,4.0,5.0,-999,-99.99,,,-99.99,,2013-03-09 10:01:00,
2013-03-09 05:11:00,-999.0,-99.9,-100.00,South,182,4.0,5.0,-999,-99.99,,,-99.99,,2013-03-09 10:11:00,
2013-03-09 05:22:00,-999.0,-99.9,-100.00,SW,232,2.0,6.0,-999,-99.99,,,-99.99,,2013-03-09 10:22:00,
2013-03-09 05:32:00,-999.0,-99.9,-100.00,WSW,249,2.0,4.0,-999,-99.99,,,-99.99,,2013-03-09 10:32:00,
2013-03-09 05:42:00,-999.0,-99.9,-100.00,WSW,247,3.0,5.0,-999,-99.99,,,-99.99,,2013-03-09 10:42:00,
2013-03-09 05:52:00,-999.0,-99.9,-100.00,SW,215,4.0,6.0,-999,-99.99,,,-99.99,,2013-03-09 10:52:00,
2013-03-09 06:01:00,-999.0,-99.9,-100.00,SW,215,4.0,6.0,-999,-99.99,,,-99.99,,2013-03-09 11:01:00,
2013-03-09 06:11:00,-999.0,-99.9,-100.00,SW,219,4.0,6.0,-999,-99.99,,,-99.99,,2013-03-09 11:11:00,
2013-03-09 06:22:00,-999.0,-99.9,-100.00,SSW,212,4.0,6.0,-999,-99.99,,,-99.99,,2013-03-09 11:22:00,
2013-03-09 06:32:00,-999.0,-99.9,-100.00,SW,215,4.0,7.0,-999,-99.99,,,-99.99,,2013-03-09 11:32:00,
2013-03-09 06:42:00,-999.0,-99.9,-100.00,WSW,247,5.0,7.0,-999,-99.99,,,-99.99,,2013-03-09 11:42:00,
2013-03-09 06:52:00,-999.0,-99.9,-100.00,SW,223,5.0,7.0,-999,-99.99,,,-99.99,,2013-03-09 11:52:00,
2013-03-09 07:02:00,-999.0,-99.9,-100.00,WSW,247,5.0,8.0,-999,-99.99,,,-99.99,,2013-03-09 12:02:00,
2013-03-09 07:12:00,-999.0,-99.9,-100.00,SW,224,4.0,9.0,-999,-99.99,,,-99.99,,2013-03-09 12:12:00,
2013-03-09 07:22:00,-999.0,-99.9,-100.00,SSW,198,4.0,6.0,-999,-99.99,,,-99.99,,2013-03-09 12:22:00,
2013-03-09 07:32:00,-999.0,-99.9,-100.00,SSW,192,2.0,6.0,-999,-99.99,,,-99.99,,2013-03-09 12:32:00,
2013-03-09 07:42:00,-999.0,-99.9,-100.00,South,187,4.0,5.0,-999,-99.99,,,-99.99,,2013-03-09 12:42:00,
2013-03-09 07:53:00,-999.0,-99.9,-100.00,SSW,202,4.0,6.0,-999,-99.99,,,-99.99,,2013-03-09 12:53:00,
2013-03-09 08:02:00,-999.0,-99.9,-100.00,SSW,203,4.0,6.0,-999,-99.99,,,-99.99,,2013-03-09 13:02:00,
2013-03-09 08:11:00,-999.0,-99.9,-100.00,SSW,198,4.0,6.0,-999,-99.99,,,-99.99,,2013-03-09 13:11:00,
2013-03-09 08:22:00,-999.0,-99.9,-100.00,SW,224,3.0,6.0,-999,-99.99,,,-99.99,,2013-03-09 13:22:00,
2013-03-09 08:32:00,-999.0,-99.9,-100.00,WSW,243,3.0,6.0,-999,-99.99,,,-99.99,,2013-03-09 13:32:00,
2013-03-09 08:42:00,-999.0,-99.9,-100.00,WSW,244,6.0,7.0,-999,-99.99,,,-99.99,,2013-03-09 13:42:00,
2013-03-09 08:52:00,-999.0,-99.9,-100.00,WSW,258,8.0,9.0,-999,-99.99,,,-99.99,,2013-03-09 13:52:00,
2013-03-09 09:02:00,-999.0,-99.9,-100.00,WSW,243,6.0,9.0,-999,-99.99,,,-99.99,,2013-03-09 14:02:00,
2013-03-09 09:11:00,-999.0,-99.9,-100.00,WSW,238,5.0,9.0,-999,-99.99,,,-99.99,,2013-03-09 14:11:00,
2013-03-09 09:22:00,-999.0,-99.9,-100.00,SW,235,5.0,8.0,-999,-99.99,,,-99.99,,2013-03-09 14:22:00,
2013-03-09 09:32:00,-999.0,-99.9,-100.00,WSW,252,5.0,7.0,-999,-99.99,,,-99.99,,2013-03-09 14:32:00,
2013-03-09 09:42:00,-999.0,-99.9,-100.00,WSW,247,7.0,8.0,-999,-99.99,,,-99.99,,2013-03-09 14:42:00,
2013-03-09 09:52:00,-999.0,-99.9,-100.00,WSW,256,6.0,9.0,-999,-99.99,,,-99.99,,2013-03-09 14:52:00,
2013-03-09 10:02:00,-999.0,-99.9,-100.00,WSW,246,5.0,6.0,-999,-99.99,,,-99.99,,2013-03-09 15:02:00,
2013-03-09 10:12:00,-999.0,-99.9,-100.00,SSW,213,4.0,6.0,-999,-99.99,,,-99.99,,2013-03-09 15:12:00,
2013-03-09 10:22:00,-999.0,-99.9,-100.00,SSW,192,4.0,5.0,-999,-99.99,,,-99.99,,2013-03-09 15:22:00,
2013-03-09 10:32:00,-999.0,-99.9,-100.00,WSW,241,5.0,6.0,-999,-99.99,,,-99.99,,2013-03-09 15:32:00,
2013-03-09 10:42:00,-999.0,-99.9,-100.00,West,262,3.0,5.0,-999,-99.99,,,-99.99,,2013-03-09 15:42:00,
2013-03-09 10:52:00,-999.0,-99.9,-100.00,WSW,258,3.0,5.0,-999,-99.99,,,-99.99,,2013-03-09 15:52:00,
2013-03-09 11:02:00,-999.0,-99.9,-100.00,West,277,3.0,5.0,-999,-99.99,,,-99.99,,2013-03-09 16:02:00,
2013-03-09 11:12:00,-999.0,-99.9,-100.00,West,275,3.0,4.0,-999,-99.99,,,-99.99,,2013-03-09 16:12:00,
2013-03-09 11:22:00,-999.0,-99.9,-100.00,WNW,302,4.0,4.0,-999,-99.99,,,-99.99,,2013-03-09 16:22:00,
2013-03-09 11:32:00,-999.0,-99.9,-100.00,WNW,302,4.0,4.0,-999,-99.99,,,-99.99,,2013-03-09 16:32:00,
2013-03-09 11:42:00,-999.0,-99.9,-100.00,WNW,288,4.0,5.0,-999,-99.99,,,-99.99,,2013-03-09 16:42:00,
2013-03-09 11:52:00,-999.0,-99.9,-100.00,WNW,288,4.0,5.0,-999,-99.99,,,-99.99,,2013-03-09 16:52:00,
2013-03-09 12:01:00,-999.0,-99.9,-100.00,West,272,3.0,4.0,-999,-99.99,,,-99.99,,2013-03-09 17:01:00,
2013-03-09 12:11:00,-999.0,-99.9,-100.00,WSW,249,3.0,4.0,-999,-99.99,,,-99.99,,2013-03-09 17:11:00,
2013-03-09 12:22:00,-999.0,-99.9,-100.00,SSW,213,2.0,4.0,-999,-99.99,,,-99.99,,2013-03-09 17:22:00,
2013-03-09 12:32:00,-999.0,-99.9,-100.00,SW,217,3.0,4.0,-999,-99.99,,,-99.99,,2013-03-09 17:32:00,
2013-03-09 12:42:00,-999.0,-99.9,-100.00,WSW,244,3.0,4.0,-999,-99.99,,,-99.99,,2013-03-09 17:42:00,
2013-03-09 12:52:00,-999.0,-99.9,-100.00,WSW,251,3.0,4.0,-999,-99.99,,,-99.99,,2013-03-09 17:52:00,
2013-03-09 13:02:00,-999.0,-99.9,-100.00,WSW,249,3.0,4.0,-999,-99.99,,,-99.99,,2013-03-09 18:02:00,
2013-03-09 13:11:00,-999.0,-99.9,-100.00,NW,306,2.0,2.0,-999,-99.99,,,-99.99,,2013-03-09 18:11:00,
2013-03-09 13:22:00,-999.0,-99.9,-100.00,West,275,2.0,2.0,-999,-99.99,,,-99.99,,2013-03-09 18:22:00,
2013-03-09 13:32:00,-999.0,-99.9,-100.00,WSW,240,2.0,3.0,-999,-99.99,,,-99.99,,2013-03-09 18:32:00,
2013-03-09 13:42:00,-999.0,-99.9,-100.00,SW,233,3.0,4.0,-999,-99.99,,,-99.99,,2013-03-09 18:42:00,
2013-03-09 13:52:00,-999.0,-99.9,-100.00,SW,235,3.0,4.0,-999,-99.99,,,-99.99,,2013-03-09 18:52:00,
2013-03-09 14:02:00,-999.0,-99.9,-100.00,SW,233,3.0,4.0,-999,-99.99,,,-99.99,,2013-03-09 19:02:00,
2013-03-09 14:12:00,-999.0,-99.9,-100.00,WSW,251,3.0,4.0,-999,-99.99,,,-99.99,,2013-03-09 19:12:00,
2013-03-09 14:22:00,-999.0,-99.9,-100.00,WSW,237,4.0,4.0,-999,-99.99,,,-99.99,,2013-03-09 19:22:00,
2013-03-09 14:32:00,-999.0,-99.9,-100.00,WSW,237,4.0,4.0,-999,-99.99,,,-99.99,,2013-03-09 19:32:00,
2013-03-09 14:42:00,-999.0,-99.9,-100.00,WSW,239,2.0,4.0,-999,-99.99,,,-99.99,,2013-03-09 19:42:00,
2013-03-09 14:52:00,-999.0,-99.9,-100.00,SW,229,3.0,6.0,-999,-99.99,,,-99.99,,2013-03-09 19:52:00,
2013-03-09 15:02:00,-999.0,-99.9,-100.00,SW,230,3.0,6.0,-999,-99.99,,,-99.99,,2013-03-09 20:02:00,
2013-03-09 15:12:00,-999.0,-99.9,-100.00,SSW,200,3.0,5.0,-999,-99.99,,,-99.99,,2013-03-09 20:12:00,
2013-03-09 15:22:00,-999.0,-99.9,-100.00,WSW,250,5.0,6.0,-999,-99.99,,,-99.99,,2013-03-09 20:22:00,
2013-03-09 15:32:00,-999.0,-99.9,-100.00,WSW,250,5.0,6.0,-999,-99.99,,,-99.99,,2013-03-09 20:32:00,
2013-03-09 15:42:00,-999.0,-99.9,-100.00,SSW,206,3.0,5.0,-999,-99.99,,,-99.99,,2013-03-09 20:42:00,
2013-03-09 15:53:00,-999.0,-99.9,-100.00,South,186,4.0,4.0,-999,-99.99,,,-99.99,,2013-03-09 20:53:00,
2013-03-09 16:02:00,-999.0,-99.9,-100.00,SSW,203,4.0,5.0,-999,-99.99,,,-99.99,,2013-03-09 21:02:00,
2013-03-09 16:12:00,-999.0,-99.9,-100.00,SSW,210,4.0,5.0,-999,-99.99,,,-99.99,,2013-03-09 21:12:00,
2013-03-09 16:22:00,-999.0,-99.9,-100.00,SSW,210,4.0,5.0,-999,-99.99,,,-99.99,,2013-03-09 21:22:00,
2013-03-09 16:32:00,-999.0,-99.9,-100.00,SSW,210,4.0,5.0,-999,-99.99,,,-99.99,,2013-03-09 21:32:00,
2013-03-09 16:42:00,-999.0,-99.9,-100.00,SW,232,3.0,5.0,-999,-99.99,,,-99.99,,2013-03-09 21:42:00,
2013-03-09 16:52:00,-999.0,-99.9,-100.00,SSW,207,2.0,3.0,-999,-99.99,,,-99.99,,2013-03-09 21:52:00,
2013-03-09 17:01:00,-999.0,-99.9,-100.00,South,190,1.0,2.0,-999,-99.99,,,-99.99,,2013-03-09 22:01:00,
2013-03-09 17:11:00,-999.0,-99.9,-100.00,SSW,200,3.0,21.0,-999,-99.99,,,-99.99,,2013-03-09 22:11:00,
2013-03-09 17:22:00,-999.0,-99.9,-100.00,South,171,3.0,4.0,-999,-99.99,,,-99.99,,2013-03-09 22:22:00,
2013-03-09 17:32:00,-999.0,-99.9,-100.00,South,187,3.0,4.0,-999,-99.99,,,-99.99,,2013-03-09 22:32:00,
2013-03-09 17:42:00,-999.0,-99.9,-100.00,SSE,149,4.0,5.0,-999,-99.99,,,-99.99,,2013-03-09 22:42:00,
2013-03-09 17:52:00,-999.0,-99.9,-100.00,SSE,157,3.0,5.0,-999,-99.99,,,-99.99,,2013-03-09 22:52:00,
2013-03-09 18:02:00,-999.0,-99.9,-100.00,SSE,154,4.0,4.0,-999,-99.99,,,-99.99,,2013-03-09 23:02:00,
2013-03-09 18:11:00,-999.0,-99.9,-100.00,SSE,165,4.0,5.0,-999,-99.99,,,-99.99,,2013-03-09 23:11:00,
2013-03-09 18:22:00,-999.0,-99.9,-100.00,SSE,155,3.0,4.0,-999,-99.99,,,-99.99,,2013-03-09 23:22:00,
2013-03-09 18:32:00,-999.0,-99.9,-100.00,SSE,155,4.0,4.0,-999,-99.99,,,-99.99,,2013-03-09 23:32:00,
2013-03-09 18:42:00,-999.0,-99.9,-100.00,SSE,152,3.0,4.0,-999,-99.99,,,-99.99,,2013-03-09 23:42:00,
2013-03-09 18:52:00,-999.0,-99.9,-100.00,SW,214,1.0,2.0,-999,-99.99,,,-99.99,,2013-03-09 23:52:00,
2013-03-09 19:02:00,-999.0,-99.9,-100.00,SW,215,1.0,2.0,-999,-99.99,,,-99.99,,2013-03-10 00:02:00,
2013-03-09 19:12:00,-999.0,-99.9,-100.00,WNW,282,2.0,3.0,-999,-99.99,,,-99.99,,2013-03-10 00:12:00,
2013-03-09 19:22:00,-999.0,-99.9,-100.00,NNW,340,1.0,3.0,-999,-99.99,,,-99.99,,2013-03-10 00:22:00,
2013-03-09 19:32:00,-999.0,-99.9,-100.00,NE,45,2.0,3.0,-999,-99.99,,,-99.99,,2013-03-10 00:32:00,
2013-03-09 19:43:00,-999.0,-99.9,-100.00,ENE,68,8.0,11.0,-999,-99.99,,,-99.99,,2013-03-10 00:43:00,
2013-03-09 19:52:00,-999.0,-99.9,-100.00,ENE,68,7.0,12.0,-999,-99.99,,,-99.99,,2013-03-10 00:52:00,
2013-03-09 20:02:00,-999.0,-99.9,-100.00,ENE,68,7.0,12.0,-999,-99.99,,,-99.99,,2013-03-10 01:02:00,
2013-03-09 20:11:00,-999.0,-99.9,-100.00,East,94,8.0,14.0,-999,-99.99,,,-99.99,,2013-03-10 01:11:00,
2013-03-09 20:22:00,-999.0,-99.9,-100.00,East,94,11.0,15.0,-999,-99.99,,,-99.99,,2013-03-10 01:22:00,
2013-03-09 20:32:00,-999.0,-99.9,-100.00,East,95,10.0,14.0,-999,-99.99,,,-99.99,,2013-03-10 01:32:00,
2013-03-09 20:42:00,-999.0,-99.9,-100.00,East,90,11.0,13.0,-999,-99.99,,,-99.99,,2013-03-10 01:42:00,
2013-03-09 20:52:00,-999.0,-99.9,-100.00,East,91,11.0,16.0,-999,-99.99,,,-99.99,,2013-03-10 01:52:00,
2013-03-09 21:01:00,-999.0,-99.9,-100.00,East,87,10.0,16.0,-999,-99.99,,,-99.99,,2013-03-10 02:01:00,
2013-03-09 21:11:00,-999.0,-99.9,-100.00,East,90,10.0,15.0,-999,-99.99,,,-99.99,,2013-03-10 02:11:00,
2013-03-09 21:22:00,-999.0,-99.9,-100.00,East,91,11.0,14.0,-999,-99.99,,,-99.99,,2013-03-10 02:22:00,
2013-03-09 21:32:00,-999.0,-99.9,-100.00,East,92,11.0,14.0,-999,-99.99,,,-99.99,,2013-03-10 02:32:00,
2013-03-09 21:42:00,-999.0,-99.9,-100.00,ESE,102,10.0,13.0,-999,-99.99,,,-99.99,,2013-03-10 02:42:00,
2013-03-09 21:52:00,-999.0,-99.9,-100.00,East,97,7.0,12.0,-999,-99.99,,,-99.99,,2013-03-10 02:52:00,
2013-03-09 22:02:00,-999.0,-99.9,-100.00,ESE,104,7.0,11.0,-999,-99.99,,,-99.99,,2013-03-10 03:02:00,
2013-03-09 22:12:00,-999.0,-99.9,-100.00,East,97,8.0,12.0,-999,-99.99,,,-99.99,,2013-03-10 03:12:00,
2013-03-09 22:22:00,40.0,-99.9,30.22,East,98,8.0,11.0,-999,-99.99,,,-99.99,,2013-03-10 03:22:00,
2013-03-09 22:32:00,-999.0,-99.9,-100.00,East,100,10.0,12.0,-999,-99.99,,,-99.99,,2013-03-10 03:32:00,
2013-03-09 22:42:00,-999.0,-99.9,-100.00,East,98,9.0,11.0,-999,-99.99,,,-99.99,,2013-03-10 03:42:00,
2013-03-09 22:52:00,-999.0,-99.9,-100.00,ESE,103,6.0,9.0,-999,-99.99,,,-99.99,,2013-03-10 03:52:00,
2013-03-09 23:02:00,-999.0,-99.9,-100.00,East,95,7.0,9.0,-999,-99.99,,,-99.99,,2013-03-10 04:02:00,
2013-03-09 23:12:00,-999.0,-99.9,-100.00,East,101,7.0,9.0,-999,-99.99,,,-99.99,,2013-03-10 04:12:00,
2013-03-09 23:22:00,-999.0,-99.9,-100.00,East,93,8.0,9.0,-999,-99.99,,,-99.99,,2013-03-10 04:22:00,
2013-03-09 23:32:00,-999.0,-99.9,-100.00,East,94,8.0,9.0,-999,-99.99,,,-99.99,,2013-03-10 04:32:00,
2013-03-09 23:42:00,-999.0,-99.9,-100.00,East,96,7.0,10.0,-999,-99.99,,,-99.99,,2013-03-10 04:42:00,
2013-03-09 23:52:00,-999.0,-99.9,-100.00,East,92,8.0,10.0,-999,-99.99,,,-99.99,,2013-03-10 04:52:00,